Weather History for Penticton, BC

Change the Weather History Date:

Wednesday, July 10, 2013

  Actual Average Record
Temperature  
Mean Temperature 73 °F -  
Max Temperature 90 °F 83 °F 96 °F (2001)
Min Temperature 56 °F 54 °F 51 °F (1996)
Cooling Degree Days 8    
Growing Degree Days 23 (Base 50)    
Moisture  
Dew Point 52 °F    
Average Humidity 45    
Maximum Humidity 72    
Minimum Humidity 27    
Precipitation  
Precipitation 0.00 in 0.03 in - ()
Sea Level Pressure  
Sea Level Pressure 29.82 in    
Wind  
Wind Speed 4 mph ()    
Max Wind Speed 14 mph    
Max Gust Speed 30 mph    
Visibility 15.0 miles    
Events      
Averages and records for this station are not official NWS values.
T = Trace of Precipitation, MM = Missing Value Source: Averaged Metar Reports

Daily Weather History Graph

Daily Weather History Graph

Search for Another Location

Airport:

Trip Planner

Search our weather history database for the weather conditions in past years. The results will help you decide how hot, cold, wet, or windy it might be!

Date:

Astronomy

Jul. 10, 2013 Rise Set
Actual Time 5:03 AM PDT 9:03 PM PDT
Civil Twilight 4:21 AM PDT 9:45 PM PDT
Nautical Twilight 3:22 AM PDT 10:43 PM PDT
Astronomical Twilight 1:35 AM PDT 12:26 AM PDT
Moon 7:47 AM PDT (7/10) 9:54 PM PDT (7/10)
Length of Visible Light 17h 23m
Length of Day
15h 59m
Waxing Crescent, 6% of the Moon is Illuminated
Jul 10
Waxing Crescent
Jul 15
First Quarter
Jul 22
Full
Jul 29
Last Quarter
Aug 6
New

Hourly Weather History & Observations

Time (PDT) Temp. Heat Index Dew Point Humidity Pressure Visibility Wind Dir Wind Speed Gust Speed Precip Events Conditions
12:00 AM 68.0 °F - 51.8 °F 56% 29.93 in 15.0 mi North 8.1 mph - N/A   Partly Cloudy
1:00 AM 66.2 °F - 50.0 °F 56% 29.92 in 15.0 mi North 6.9 mph - N/A   Partly Cloudy
2:00 AM 64.4 °F - 48.2 °F 56% 29.93 in 15.0 mi North 3.5 mph - N/A   Clear
3:00 AM 62.6 °F - 48.2 °F 59% 29.92 in 15.0 mi Variable 2.3 mph - N/A   Clear
4:00 AM 59.0 °F - 48.2 °F 67% 29.92 in 15.0 mi Calm Calm - N/A   Scattered Clouds
5:00 AM 57 °F - 48 °F 63% 29.93 in 15 mi North 2.3 mph - -   Scattered Clouds
5:00 AM 57.2 °F - 48.2 °F 72% 29.93 in 15.0 mi Variable 2.3 mph - N/A   Partly Cloudy
6:00 AM 59.0 °F - 48.2 °F 67% 29.92 in 15.0 mi Variable 2.3 mph - N/A   Scattered Clouds
7:00 AM 66.2 °F - 51.8 °F 60% 29.93 in 15.0 mi Calm Calm - N/A   Partly Cloudy
8:00 AM 69.8 °F - 53.6 °F 56% 29.91 in 15.0 mi Calm Calm - N/A   Partly Cloudy
9:00 AM 75.2 °F - 53.6 °F 47% 29.89 in 15.0 mi Calm Calm - N/A   Clear
10:00 AM 77.0 °F - 53.6 °F 44% 29.87 in 15.0 mi South 5.8 mph - N/A   Partly Cloudy
11:00 AM 82 °F - 57 °F 32% 29.84 in 15 mi ENE 2.3 mph - -   Scattered Clouds
11:00 AM 82.4 °F 82.0 °F 57.2 °F 42% 29.84 in 15.0 mi Calm Calm - N/A   Partly Cloudy
12:00 PM 84.2 °F - 48.2 °F 29% 29.81 in 15.0 mi ESE 3.5 mph - N/A   Partly Cloudy
1:00 PM 86.0 °F 84.5 °F 55.4 °F 35% 29.77 in 15.0 mi South 6.9 mph - N/A   Partly Cloudy
2:00 PM 89.6 °F 88.1 °F 57.2 °F 33% 29.74 in 15.0 mi South 8.1 mph - N/A   Scattered Clouds
3:00 PM 87.8 °F 85.7 °F 53.6 °F 31% 29.72 in 15.0 mi South 12.7 mph - N/A   Scattered Clouds
4:00 PM 89.6 °F 87.7 °F 55.4 °F 31% 29.70 in 15.0 mi SE 3.5 mph - N/A   Mostly Cloudy
5:00 PM 86 °F - 57 °F 27% 29.69 in 15 mi North 11.5 mph - -   Partly Cloudy
5:00 PM 86.0 °F 84.9 °F 57.2 °F 37% 29.68 in 15.0 mi North 11.5 mph - N/A   Mostly Cloudy
6:00 PM 86.0 °F - 51.8 °F 31% 29.69 in 15.0 mi North 13.8 mph 29.9 mph N/A   Scattered Clouds
7:00 PM 78.8 °F - 51.8 °F 39% 29.72 in 15.0 mi North 12.7 mph 21.9 mph N/A   Scattered Clouds
8:00 PM 78.8 °F - 51.8 °F 39% 29.72 in 15.0 mi NNE 11.5 mph - N/A   Scattered Clouds
9:00 PM 75.2 °F - 51.8 °F 44% 29.73 in 15.0 mi Calm Calm - N/A   Scattered Clouds
10:00 PM 75.2 °F - 50.0 °F 41% 29.75 in 15.0 mi Calm Calm - N/A   Partly Cloudy
11:00 PM 72 °F - 46 °F 29% 29.76 in 15 mi North 5.8 mph - -   Clear
11:00 PM 71.6 °F - 46.4 °F 41% 29.76 in 15.0 mi Variable 2.3 mph - N/A   Partly Cloudy